User: anonymous   Login
Location: Unspecified
(0.0000°N, 0.0000°E)
Time: 04:00:53
(UTC+01:00)
Language:

IUS-9 SRM-1 - Orbit

View from above orbital plane
View from above orbital plane
View from above satellite
View from above satellite

Ground track
Ground track

The orbit data is extracted from the following two-line orbital elements,

1 19884U 89021C   17022.62030334 +.00005662 +00000-0 +49083-3 0  9999
2 19884 026.3785 117.0308 5972996 115.9775 315.8653 04.12086194327980
Epoch (UTC): 22 January 2017 14:53:14
Eccentricity: 0.5972996
inclination: 26.3785°
perigee height: 240 km
apogee height: 19871 km
right ascension of ascending node: 117.0308°
argument of perigee: 115.9775°
revolutions per day: 4.12086194
mean anomaly at epoch: 315.8653°
orbit number at epoch: 32798

The dashed part of the orbit path shows where the satellite is in the earth's shadow,  

DLR